Weather in Ayon

Russia / Chukotka Autonomous Okrug     69°56′15″N   167°59′52″E
temp.,
°C
wind,
m/s
gust,
m/s
humid.,
%
clouds,
%
prec.,
mm/h
press.,
hPa
HPBL,
m
8 may, sat
sat800:00−11nne3310099 0.0 101812
03:00−14n33100100 0.0 101813
06:00−14ne22100100 0.1 101819
09:00−9ene2395100 0.1 1018311
12:00−6ese3387100 0.1 1019391
15:00−4se3383100 0.0 1019483
18:00−4se238696 0.0 1019279
21:00−10ese229796 0.0 101910
9 may, sun
sun900:00−13ene11100100 0.0 101910
03:00−14nnw11100100 0.0 10199
06:00−13nnw1110099 0.0 101938
09:00−8nnw33100100 0.0 1019201
12:00−6nnw2290100 0.1 1019443
15:00−4ssw2380100 0.1 1019681
18:00−3sse3380100 0.1 1020653
21:00−4se2381100 0.1 102052
10 may, mon
mon1000:00−5se2281100 0.1 102011
03:00−5se1180100 0.1 102110
06:00−5se1177100 0.1 1021452
09:00−5ese1174100 0.1 1021566
12:00−4ese217599 0.1 1021594
15:00−4ese217699 0.0 1021533
18:00−3ese217599 0.1 1021491
21:00−6sse228999 0.0 102136
11 may, tue
tue1100:00−7s2290100 0.0 102122
03:00−9s229399 0.0 102227
06:00−8s2292100 0.0 102270
09:00−6s228898 0.0 1022190
12:00−5s218460 0.1 1022359
15:00−4s218063 0.0 1022433
18:00−4se218171 0.0 1022375
21:00−9se229762 0.0 102330
12 may, wed
wed1200:00−13ese2210096 0.0 102310
03:00−14e2210099 0.0 102310
06:00−13ene2210098 0.0 102316
09:00−8e2395100 0.0 1023135
12:00−6ese238978 0.0 1023218
15:00−4ese33839 0.0 1023333
18:00−4se33846 0.0 1023232
21:00−8se2296100 0.0 102213